Time,TemperatureF,DewpointF,PressureIn,WindDirection,WindDirectionDegrees,WindSpeedMPH,WindSpeedGustMPH,Humidity,HourlyPrecipIn,Conditions,Clouds,dailyrainin,SoftwareType,DateUTC
2013-03-17 00:00:00,62.5,53.0,29.83,SW,215,0.0,0.0,71,0.00,,,0.00,Wunderground v.1.15,2013-03-17 04:00:00,
2013-03-17 00:05:00,62.3,53.2,29.83,SW,215,0.0,0.0,72,0.00,,,0.00,Wunderground v.1.15,2013-03-17 04:05:00,
2013-03-17 00:10:00,62.1,53.0,29.83,SW,215,0.0,0.0,72,0.00,,,0.00,Wunderground v.1.15,2013-03-17 04:10:00,
2013-03-17 00:20:00,61.4,52.7,29.83,SW,215,0.0,0.0,73,0.00,,,0.00,Wunderground v.1.15,2013-03-17 04:20:00,
2013-03-17 00:25:00,60.9,52.6,29.83,SW,215,0.0,0.0,74,0.00,,,0.00,Wunderground v.1.15,2013-03-17 04:25:00,
2013-03-17 00:30:00,60.4,52.1,29.83,SW,215,0.0,0.0,74,0.00,,,0.00,Wunderground v.1.15,2013-03-17 04:30:00,
2013-03-17 00:35:00,60.0,52.1,29.83,SW,215,0.0,0.0,75,0.00,,,0.00,Wunderground v.1.15,2013-03-17 04:35:00,
2013-03-17 00:40:00,59.5,51.9,29.83,SW,215,0.0,0.0,76,0.00,,,0.00,Wunderground v.1.15,2013-03-17 04:40:00,
2013-03-17 00:50:00,58.8,51.6,29.83,SW,215,0.0,0.0,77,0.00,,,0.00,Wunderground v.1.15,2013-03-17 04:50:00,
2013-03-17 00:55:00,58.3,51.5,29.83,SW,215,0.0,0.0,78,0.00,,,0.00,Wunderground v.1.15,2013-03-17 04:55:00,
2013-03-17 01:00:00,57.9,51.4,29.83,SW,215,0.0,0.0,79,0.00,,,0.00,Wunderground v.1.15,2013-03-17 05:00:00,
2013-03-17 01:05:00,57.5,51.0,29.83,SW,215,0.0,0.0,79,0.00,,,0.00,Wunderground v.1.15,2013-03-17 05:05:00,
2013-03-17 01:15:00,56.8,51.0,29.84,SW,215,0.0,0.0,81,0.00,,,0.00,Wunderground v.1.15,2013-03-17 05:15:00,
2013-03-17 01:25:00,56.1,50.7,29.84,SW,215,0.0,0.0,82,0.00,,,0.00,Wunderground v.1.15,2013-03-17 05:25:00,
2013-03-17 01:30:00,55.7,50.3,29.84,SW,215,0.0,0.0,82,0.00,,,0.00,Wunderground v.1.15,2013-03-17 05:30:00,
2013-03-17 01:35:00,55.4,50.3,29.84,SW,215,0.0,0.0,83,0.00,,,0.00,Wunderground v.1.15,2013-03-17 05:35:00,
2013-03-17 01:40:00,55.1,50.0,29.85,SW,215,0.0,0.0,83,0.00,,,0.00,Wunderground v.1.15,2013-03-17 05:40:00,
2013-03-17 01:45:00,54.8,50.1,29.85,SW,215,0.0,0.0,84,0.00,,,0.00,Wunderground v.1.15,2013-03-17 05:45:00,
2013-03-17 01:50:00,54.5,49.8,29.85,SW,215,0.0,0.0,84,0.00,,,0.00,Wunderground v.1.15,2013-03-17 05:50:00,
2013-03-17 02:00:00,54.0,49.6,29.85,SW,215,0.0,0.0,85,0.00,,,0.00,Wunderground v.1.15,2013-03-17 06:00:00,
2013-03-17 02:05:00,53.7,49.6,29.86,SW,215,0.0,0.0,86,0.00,,,0.00,Wunderground v.1.15,2013-03-17 06:05:00,
2013-03-17 02:15:00,53.2,49.1,29.86,SW,215,0.0,0.0,86,0.00,,,0.00,Wunderground v.1.15,2013-03-17 06:15:00,
2013-03-17 02:25:00,52.7,48.9,29.86,SW,215,0.0,0.0,87,0.00,,,0.00,Wunderground v.1.15,2013-03-17 06:25:00,
2013-03-17 02:30:00,52.5,49.0,29.86,SW,215,0.0,0.0,88,0.00,,,0.00,Wunderground v.1.15,2013-03-17 06:30:00,
2013-03-17 02:35:00,52.3,48.9,29.86,SW,215,0.0,0.0,88,0.00,,,0.00,Wunderground v.1.15,2013-03-17 06:35:00,
2013-03-17 02:45:00,51.9,48.5,29.86,SW,215,0.0,0.0,88,0.00,,,0.00,Wunderground v.1.15,2013-03-17 06:45:00,
2013-03-17 02:50:00,51.7,48.6,29.86,SW,215,0.0,0.0,89,0.00,,,0.00,Wunderground v.1.15,2013-03-17 06:50:00,
2013-03-17 02:55:00,51.5,48.4,29.87,SW,215,0.0,0.0,89,0.00,,,0.00,Wunderground v.1.15,2013-03-17 06:55:00,
2013-03-17 03:05:00,51.1,48.3,29.87,SW,215,0.0,0.0,90,0.00,,,0.00,Wunderground v.1.15,2013-03-17 07:05:00,
2013-03-17 03:15:00,50.8,48.0,29.87,SW,215,0.0,0.0,90,0.00,,,0.00,Wunderground v.1.15,2013-03-17 07:15:00,
2013-03-17 03:20:00,50.7,48.2,29.86,SW,215,0.0,0.0,91,0.00,,,0.00,Wunderground v.1.15,2013-03-17 07:20:00,
2013-03-17 03:25:00,50.6,48.1,29.87,SW,215,0.0,0.0,91,0.00,,,0.00,Wunderground v.1.15,2013-03-17 07:25:00,
2013-03-17 03:30:00,50.5,48.0,29.87,SW,215,0.0,0.0,91,0.00,,,0.00,Wunderground v.1.15,2013-03-17 07:30:00,
2013-03-17 03:40:00,50.3,47.8,29.88,SW,215,0.0,0.0,91,0.00,,,0.00,Wunderground v.1.15,2013-03-17 07:40:00,
2013-03-17 03:45:00,50.1,47.9,29.88,SW,215,0.0,0.0,92,0.00,,,0.00,Wunderground v.1.15,2013-03-17 07:45:00,
2013-03-17 03:50:00,50.4,48.5,29.89,SW,215,0.0,0.0,93,0.00,,,0.00,Wunderground v.1.15,2013-03-17 07:50:00,
2013-03-17 03:55:00,50.2,48.0,29.89,SW,215,0.0,0.0,92,0.00,,,0.00,Wunderground v.1.15,2013-03-17 07:55:00,
2013-03-17 04:00:00,50.1,47.9,29.89,SW,215,0.0,0.0,92,0.00,,,0.00,Wunderground v.1.15,2013-03-17 08:00:00,
2013-03-17 04:05:00,50.0,48.1,29.89,SW,215,0.0,0.0,93,0.00,,,0.00,Wunderground v.1.15,2013-03-17 08:05:00,
2013-03-17 04:15:00,50.4,48.7,29.89,SW,215,0.0,0.0,94,0.00,,,0.00,Wunderground v.1.15,2013-03-17 08:15:00,
2013-03-17 04:20:00,50.6,48.9,29.89,SW,215,0.0,0.0,94,0.00,,,0.00,Wunderground v.1.15,2013-03-17 08:20:00,
2013-03-17 04:25:00,50.8,49.1,29.90,SW,215,0.0,0.0,94,0.00,,,0.00,Wunderground v.1.15,2013-03-17 08:25:00,
2013-03-17 04:30:00,51.0,49.3,29.90,SW,215,0.0,2.0,94,0.00,,,0.00,Wunderground v.1.15,2013-03-17 08:30:00,
2013-03-17 04:35:00,51.8,50.4,29.90,SE,132,0.0,2.0,95,0.00,,,0.00,Wunderground v.1.15,2013-03-17 08:35:00,
2013-03-17 04:45:00,53.0,51.6,29.91,North,5,0.0,0.0,95,0.00,,,0.00,Wunderground v.1.15,2013-03-17 08:45:00,
2013-03-17 04:50:00,53.3,51.9,29.91,NW,306,0.0,0.0,95,0.00,,,0.00,Wunderground v.1.15,2013-03-17 08:50:00,
2013-03-17 04:55:00,53.4,52.0,29.91,NW,311,1.0,1.0,95,0.00,,,0.00,Wunderground v.1.15,2013-03-17 08:55:00,
2013-03-17 05:00:00,53.5,52.1,29.91,NW,311,0.0,0.0,95,0.00,,,0.00,Wunderground v.1.15,2013-03-17 09:00:00,
2013-03-17 05:05:00,53.5,52.1,29.92,NE,39,0.0,1.0,95,0.00,,,0.00,Wunderground v.1.15,2013-03-17 09:05:00,
2013-03-17 05:15:00,53.5,52.1,29.92,West,275,0.0,0.0,95,0.00,,,0.00,Wunderground v.1.15,2013-03-17 09:15:00,
2013-03-17 05:20:00,53.5,52.1,29.92,NW,320,0.0,0.0,95,0.00,,,0.00,Wunderground v.1.15,2013-03-17 09:20:00,
2013-03-17 05:30:00,53.5,52.1,29.92,East,80,0.0,0.0,95,0.00,,,0.00,Wunderground v.1.15,2013-03-17 09:30:00,
2013-03-17 05:35:00,53.5,52.1,29.92,East,80,0.0,0.0,95,0.00,,,0.00,Wunderground v.1.15,2013-03-17 09:35:00,
2013-03-17 05:40:00,53.5,52.1,29.92,East,81,0.0,0.0,95,0.00,,,0.00,Wunderground v.1.15,2013-03-17 09:40:00,
2013-03-17 05:45:00,53.5,52.4,29.93,East,81,0.0,0.0,96,0.00,,,0.00,Wunderground v.1.15,2013-03-17 09:45:00,
2013-03-17 05:55:00,53.6,52.5,29.93,WNW,290,0.0,1.0,96,0.00,,,0.00,Wunderground v.1.15,2013-03-17 09:55:00,
2013-03-17 06:00:00,53.6,52.5,29.93,WNW,290,0.0,0.0,96,0.00,,,0.00,Wunderground v.1.15,2013-03-17 10:00:00,
2013-03-17 06:05:00,53.6,52.5,29.94,WNW,290,0.0,0.0,96,0.00,,,0.00,Wunderground v.1.15,2013-03-17 10:05:00,
2013-03-17 06:15:00,53.7,52.6,29.95,WNW,290,0.0,0.0,96,0.00,,,0.00,Wunderground v.1.15,2013-03-17 10:15:00,
2013-03-17 06:25:00,53.6,52.5,29.95,WNW,290,0.0,0.0,96,0.00,,,0.00,Wunderground v.1.15,2013-03-17 10:25:00,
2013-03-17 06:30:00,53.6,52.5,29.95,WNW,290,0.0,0.0,96,0.00,,,0.00,Wunderground v.1.15,2013-03-17 10:30:00,
2013-03-17 06:35:00,53.5,52.4,29.95,WNW,290,0.0,0.0,96,0.00,,,0.00,Wunderground v.1.15,2013-03-17 10:35:00,
2013-03-17 06:40:00,53.4,52.3,29.95,WNW,291,0.0,0.0,96,0.00,,,0.00,Wunderground v.1.15,2013-03-17 10:40:00,
2013-03-17 06:45:00,53.3,52.2,29.95,NNE,16,0.0,1.0,96,0.00,,,0.00,Wunderground v.1.15,2013-03-17 10:45:00,
2013-03-17 06:55:00,53.1,52.0,29.96,North,9,0.0,0.0,96,0.00,,,0.00,Wunderground v.1.15,2013-03-17 10:55:00,
2013-03-17 07:00:00,53.0,51.9,29.96,North,9,0.0,0.0,96,0.00,,,0.00,Wunderground v.1.15,2013-03-17 11:00:00,
2013-03-17 07:05:00,52.9,51.8,29.96,ENE,65,0.0,0.0,96,0.00,,,0.00,Wunderground v.1.15,2013-03-17 11:05:00,
2013-03-17 07:15:00,52.6,51.5,29.97,West,277,0.0,0.0,96,0.00,,,0.00,Wunderground v.1.15,2013-03-17 11:15:00,
2013-03-17 07:20:00,52.5,51.4,29.97,West,280,0.0,0.0,96,0.00,,,0.00,Wunderground v.1.15,2013-03-17 11:20:00,
2013-03-17 07:25:00,52.4,51.3,29.97,West,280,0.0,0.0,96,0.00,,,0.00,Wunderground v.1.15,2013-03-17 11:25:00,
2013-03-17 07:35:00,52.3,51.2,29.98,North,355,0.0,0.0,96,0.00,,,0.00,Wunderground v.1.15,2013-03-17 11:35:00,
2013-03-17 07:40:00,52.2,51.1,29.98,North,355,0.0,0.0,96,0.00,,,0.00,Wunderground v.1.15,2013-03-17 11:40:00,
2013-03-17 07:45:00,52.0,50.9,29.98,SW,220,0.0,0.0,96,0.00,,,0.00,Wunderground v.1.15,2013-03-17 11:45:00,
2013-03-17 07:50:00,51.7,50.3,29.98,West,278,0.0,0.0,95,0.00,,,0.00,Wunderground v.1.15,2013-03-17 11:50:00,
2013-03-17 07:55:00,51.4,50.0,29.99,West,274,1.0,3.0,95,0.00,,,0.00,Wunderground v.1.15,2013-03-17 11:55:00,
2013-03-17 08:05:00,50.9,49.8,29.99,North,349,0.0,1.0,96,0.00,,,0.00,Wunderground v.1.15,2013-03-17 12:05:00,
2013-03-17 08:15:00,50.7,49.6,29.99,ENE,67,0.0,0.0,96,0.00,,,0.00,Wunderground v.1.15,2013-03-17 12:15:00,
2013-03-17 08:20:00,50.6,49.5,29.98,NNW,329,0.0,0.0,96,0.00,,,0.00,Wunderground v.1.15,2013-03-17 12:20:00,
2013-03-17 08:25:00,50.6,49.5,29.98,South,169,0.0,0.0,96,0.00,,,0.00,Wunderground v.1.15,2013-03-17 12:25:00,
2013-03-17 08:30:00,50.5,49.4,29.98,South,169,0.0,0.0,96,0.00,,,0.00,Wunderground v.1.15,2013-03-17 12:30:00,
2013-03-17 08:40:00,50.5,49.4,29.99,SSW,192,0.0,0.0,96,0.00,,,0.00,Wunderground v.1.15,2013-03-17 12:40:00,
2013-03-17 08:45:00,50.5,49.4,29.99,WSW,255,0.0,0.0,96,0.00,,,0.00,Wunderground v.1.15,2013-03-17 12:45:00,
2013-03-17 08:50:00,50.6,49.5,30.00,WSW,255,0.0,0.0,96,0.00,,,0.00,Wunderground v.1.15,2013-03-17 12:50:00,
2013-03-17 08:55:00,50.6,49.5,30.00,West,279,0.0,0.0,96,0.00,,,0.00,Wunderground v.1.15,2013-03-17 12:55:00,
2013-03-17 09:00:00,50.5,49.4,30.00,West,281,0.0,0.0,96,0.00,,,0.00,Wunderground v.1.15,2013-03-17 13:00:00,
2013-03-17 09:05:00,50.6,49.5,30.00,NW,309,0.0,2.0,96,0.00,,,0.00,Wunderground v.1.15,2013-03-17 13:05:00,
2013-03-17 09:15:00,50.5,49.1,30.00,NNW,329,1.0,2.0,95,0.00,,,0.00,Wunderground v.1.15,2013-03-17 13:15:00,
2013-03-17 09:25:00,50.5,48.8,30.00,NW,317,0.0,1.0,94,0.00,,,0.00,Wunderground v.1.15,2013-03-17 13:25:00,
2013-03-17 09:30:00,50.6,48.7,30.01,West,277,1.0,1.0,93,0.00,,,0.00,Wunderground v.1.15,2013-03-17 13:30:00,
2013-03-17 09:35:00,50.7,48.5,30.01,WNW,296,1.0,1.0,92,0.00,,,0.00,Wunderground v.1.15,2013-03-17 13:35:00,
2013-03-17 09:40:00,50.9,48.7,30.02,SSE,158,1.0,1.0,92,0.00,,,0.00,Wunderground v.1.15,2013-03-17 13:40:00,
2013-03-17 09:50:00,51.3,48.8,30.03,WSW,250,0.0,0.0,91,0.00,,,0.00,Wunderground v.1.15,2013-03-17 13:50:00,
2013-03-17 09:55:00,51.4,48.6,30.03,NW,321,0.0,0.0,90,0.00,,,0.00,Wunderground v.1.15,2013-03-17 13:55:00,
2013-03-17 10:00:00,51.7,48.6,30.03,ENE,62,1.0,2.0,89,0.00,,,0.00,Wunderground v.1.15,2013-03-17 14:00:00,
2013-03-17 10:05:00,52.0,48.6,30.04,West,281,0.0,2.0,88,0.00,,,0.00,Wunderground v.1.15,2013-03-17 14:05:00,
2013-03-17 10:15:00,52.5,48.1,30.04,West,272,1.0,4.0,85,0.00,,,0.00,Wunderground v.1.15,2013-03-17 14:15:00,
2013-03-17 10:20:00,52.6,47.6,30.04,NNW,344,1.0,1.0,83,0.00,,,0.00,Wunderground v.1.15,2013-03-17 14:20:00,
2013-03-17 10:25:00,52.7,47.7,30.05,NNE,27,1.0,1.0,83,0.00,,,0.00,Wunderground v.1.15,2013-03-17 14:25:00,
2013-03-17 10:30:00,52.9,47.9,30.05,West,273,0.0,0.0,83,0.00,,,0.00,Wunderground v.1.15,2013-03-17 14:30:00,
2013-03-17 10:35:00,53.1,47.7,30.05,North,360,0.0,2.0,82,0.00,,,0.00,Wunderground v.1.15,2013-03-17 14:35:00,
2013-03-17 10:40:00,53.1,47.7,30.05,NW,325,1.0,3.0,82,0.00,,,0.00,Wunderground v.1.15,2013-03-17 14:40:00,
2013-03-17 10:45:00,53.3,47.3,30.05,WSW,257,2.0,5.0,80,0.00,,,0.00,Wunderground v.1.15,2013-03-17 14:45:00,
2013-03-17 10:55:00,53.5,47.1,30.06,ENE,61,2.0,3.0,79,0.00,,,0.00,Wunderground v.1.15,2013-03-17 14:55:00,
2013-03-17 11:05:00,54.1,47.0,30.06,ENE,74,2.0,3.0,77,0.00,,,0.00,Wunderground v.1.15,2013-03-17 15:05:00,
2013-03-17 11:15:00,54.1,47.0,30.06,WNW,292,1.0,2.0,77,0.00,,,0.00,Wunderground v.1.15,2013-03-17 15:15:00,
2013-03-17 11:20:00,54.0,46.3,30.06,NW,317,1.0,3.0,75,0.00,,,0.00,Wunderground v.1.15,2013-03-17 15:20:00,
2013-03-17 11:30:00,53.7,46.3,30.06,NW,306,2.0,2.0,76,0.00,,,0.00,Wunderground v.1.15,2013-03-17 15:30:00,
2013-03-17 11:35:00,53.7,46.3,30.06,WNW,303,2.0,2.0,76,0.00,,,0.00,Wunderground v.1.15,2013-03-17 15:35:00,
2013-03-17 11:40:00,53.7,46.7,30.06,North,9,1.0,1.0,77,0.00,,,0.00,Wunderground v.1.15,2013-03-17 15:40:00,
2013-03-17 11:45:00,54.1,46.3,30.07,North,5,1.0,1.0,75,0.00,,,0.00,Wunderground v.1.15,2013-03-17 15:45:00,
2013-03-17 11:50:00,54.3,46.2,30.07,SSE,150,1.0,1.0,74,0.00,,,0.00,Wunderground v.1.15,2013-03-17 15:50:00,
2013-03-17 12:00:00,53.9,45.8,30.07,NW,316,1.0,1.0,74,0.00,,,0.00,Wunderground v.1.15,2013-03-17 16:00:00,
2013-03-17 12:05:00,53.8,45.7,30.08,ENE,71,1.0,1.0,74,0.00,,,0.00,Wunderground v.1.15,2013-03-17 16:05:00,
2013-03-17 12:15:00,53.3,44.9,30.08,East,85,2.0,2.0,73,0.00,,,0.00,Wunderground v.1.15,2013-03-17 16:15:00,
2013-03-17 12:20:00,52.9,44.8,30.08,West,280,2.0,2.0,74,0.00,,,0.00,Wunderground v.1.15,2013-03-17 16:20:00,
2013-03-17 12:25:00,52.9,44.8,30.08,WNW,292,1.0,2.0,74,0.00,,,0.00,Wunderground v.1.15,2013-03-17 16:25:00,
2013-03-17 12:35:00,53.0,44.9,30.07,WNW,288,1.0,2.0,74,0.00,,,0.00,Wunderground v.1.15,2013-03-17 16:35:00,
2013-03-17 12:40:00,53.2,44.8,30.07,NW,318,1.0,4.0,73,0.00,,,0.00,Wunderground v.1.15,2013-03-17 16:40:00,
2013-03-17 12:45:00,53.4,45.0,30.07,East,80,1.0,5.0,73,0.00,,,0.00,Wunderground v.1.15,2013-03-17 16:45:00,
2013-03-17 12:50:00,53.6,44.8,30.07,West,277,1.0,5.0,72,0.00,,,0.00,Wunderground v.1.15,2013-03-17 16:50:00,
2013-03-17 12:55:00,53.3,44.5,30.08,West,273,1.0,5.0,72,0.00,,,0.00,Wunderground v.1.15,2013-03-17 16:55:00,
2013-03-17 13:00:00,53.1,43.9,30.08,West,281,1.0,2.0,71,0.00,,,0.00,Wunderground v.1.15,2013-03-17 17:00:00,
2013-03-17 13:05:00,52.7,43.6,30.08,WNW,299,1.0,2.0,71,0.00,,,0.00,Wunderground v.1.15,2013-03-17 17:05:00,
2013-03-17 13:15:00,52.0,43.3,30.08,East,91,1.0,1.0,72,0.00,,,0.00,Wunderground v.1.15,2013-03-17 17:15:00,
2013-03-17 13:20:00,51.8,43.1,30.08,NW,321,1.0,1.0,72,0.00,,,0.00,Wunderground v.1.15,2013-03-17 17:20:00,
2013-03-17 13:25:00,51.6,43.2,30.08,WNW,282,1.0,1.0,73,0.00,,,0.00,Wunderground v.1.15,2013-03-17 17:25:00,
2013-03-17 13:30:00,51.5,43.5,30.08,NNW,327,1.0,1.0,74,0.00,,,0.00,Wunderground v.1.15,2013-03-17 17:30:00,
2013-03-17 13:35:00,51.5,43.5,30.08,WNW,295,1.0,1.0,74,0.00,,,0.00,Wunderground v.1.15,2013-03-17 17:35:00,
2013-03-17 13:45:00,51.1,43.1,30.07,West,280,1.0,1.0,74,0.00,,,0.00,Wunderground v.1.15,2013-03-17 17:45:00,
2013-03-17 13:50:00,50.8,43.2,30.07,WNW,289,1.0,3.0,75,0.00,,,0.00,Wunderground v.1.15,2013-03-17 17:50:00,
2013-03-17 13:55:00,50.6,43.0,30.07,WNW,288,1.0,3.0,75,0.00,,,0.00,Wunderground v.1.15,2013-03-17 17:55:00,
2013-03-17 14:00:00,50.6,43.0,30.07,NNW,333,0.0,0.0,75,0.00,,,0.00,Wunderground v.1.15,2013-03-17 18:00:00,
2013-03-17 14:05:00,50.3,42.3,30.07,WNW,287,1.0,3.0,74,0.00,,,0.00,Wunderground v.1.15,2013-03-17 18:05:00,
2013-03-17 14:15:00,49.9,42.3,30.07,WNW,298,1.0,1.0,75,0.00,,,0.00,Wunderground v.1.15,2013-03-17 18:15:00,
2013-03-17 14:20:00,49.8,42.2,30.07,NW,319,1.0,1.0,75,0.00,,,0.00,Wunderground v.1.15,2013-03-17 18:20:00,
2013-03-17 14:25:00,49.6,42.0,30.07,WNW,303,1.0,2.0,75,0.00,,,0.00,Wunderground v.1.15,2013-03-17 18:25:00,
2013-03-17 14:30:00,49.4,42.1,30.07,SSE,162,1.0,1.0,76,0.00,,,0.00,Wunderground v.1.15,2013-03-17 18:30:00,
2013-03-17 14:40:00,49.4,42.1,30.07,SSW,199,1.0,1.0,76,0.00,,,0.00,Wunderground v.1.15,2013-03-17 18:40:00,
2013-03-17 14:45:00,49.2,42.0,30.07,WNW,287,1.0,1.0,76,0.00,,,0.00,Wunderground v.1.15,2013-03-17 18:45:00,
2013-03-17 14:50:00,49.2,42.0,30.07,ENE,60,1.0,1.0,76,0.00,,,0.00,Wunderground v.1.15,2013-03-17 18:50:00,
2013-03-17 15:00:00,49.2,41.6,30.06,West,281,1.0,1.0,75,0.00,,,0.00,Wunderground v.1.15,2013-03-17 19:00:00,
2013-03-17 15:05:00,49.2,41.6,30.06,WNW,301,1.0,1.0,75,0.00,,,0.00,Wunderground v.1.15,2013-03-17 19:05:00,
2013-03-17 15:15:00,49.3,41.7,30.06,North,350,0.0,2.0,75,0.00,,,0.00,Wunderground v.1.15,2013-03-17 19:15:00,
2013-03-17 15:25:00,49.2,41.3,30.06,West,279,0.0,0.0,74,0.00,,,0.00,Wunderground v.1.15,2013-03-17 19:25:00,
2013-03-17 15:30:00,49.2,41.3,30.06,West,263,0.0,0.0,74,0.00,,,0.00,Wunderground v.1.15,2013-03-17 19:30:00,
2013-03-17 15:35:00,49.0,41.4,30.06,WNW,291,1.0,1.0,75,0.00,,,0.00,Wunderground v.1.15,2013-03-17 19:35:00,
2013-03-17 15:40:00,48.8,41.2,30.06,West,267,1.0,2.0,75,0.00,,,0.00,Wunderground v.1.15,2013-03-17 19:40:00,
2013-03-17 15:45:00,48.6,41.0,30.06,West,270,1.0,2.0,75,0.00,,,0.00,Wunderground v.1.15,2013-03-17 19:45:00,
2013-03-17 15:55:00,48.5,40.9,30.06,WNW,283,1.0,1.0,75,0.00,,,0.00,Wunderground v.1.15,2013-03-17 19:55:00,
2013-03-17 16:00:00,48.4,40.8,30.06,WNW,286,1.0,6.0,75,0.00,,,0.00,Wunderground v.1.15,2013-03-17 20:00:00,
2013-03-17 16:05:00,48.2,41.0,30.06,West,274,1.0,6.0,76,0.00,,,0.00,Wunderground v.1.15,2013-03-17 20:05:00,
2013-03-17 16:15:00,48.3,41.1,30.06,ENE,67,0.0,0.0,76,0.00,,,0.00,Wunderground v.1.15,2013-03-17 20:15:00,
2013-03-17 16:20:00,48.3,41.1,30.06,WNW,292,0.0,0.0,76,0.00,,,0.00,Wunderground v.1.15,2013-03-17 20:20:00,
2013-03-17 16:30:00,48.3,40.7,30.07,NW,323,1.0,1.0,75,0.00,,,0.00,Wunderground v.1.15,2013-03-17 20:30:00,
2013-03-17 16:35:00,48.3,41.1,30.07,NNW,340,1.0,1.0,76,0.00,,,0.00,Wunderground v.1.15,2013-03-17 20:35:00,
2013-03-17 16:40:00,48.2,41.0,30.07,North,355,1.0,1.0,76,0.00,,,0.00,Wunderground v.1.15,2013-03-17 20:40:00,
2013-03-17 16:45:00,48.1,40.9,30.07,NNE,27,0.0,1.0,76,0.00,,,0.00,Wunderground v.1.15,2013-03-17 20:45:00,
2013-03-17 16:50:00,48.0,40.8,30.07,West,280,0.0,3.0,76,0.00,,,0.00,Wunderground v.1.15,2013-03-17 20:50:00,
2013-03-17 16:55:00,47.8,40.6,30.08,ENE,61,1.0,3.0,76,0.00,,,0.00,Wunderground v.1.15,2013-03-17 20:55:00,
2013-03-17 17:05:00,47.6,40.4,30.08,NNW,333,0.0,0.0,76,0.00,,,0.00,Wunderground v.1.15,2013-03-17 21:05:00,
2013-03-17 17:15:00,47.3,40.5,30.09,North,360,1.0,1.0,77,0.00,,,0.00,Wunderground v.1.15,2013-03-17 21:15:00,
2013-03-17 17:20:00,47.1,40.3,30.09,ENE,63,1.0,1.0,77,0.00,,,0.00,Wunderground v.1.15,2013-03-17 21:20:00,
2013-03-17 17:25:00,47.0,40.5,30.08,West,266,0.0,1.0,78,0.00,,,0.00,Wunderground v.1.15,2013-03-17 21:25:00,
2013-03-17 17:30:00,47.1,40.6,30.08,North,5,0.0,3.0,78,0.00,,,0.00,Wunderground v.1.15,2013-03-17 21:30:00,
2013-03-17 17:40:00,47.0,40.5,30.08,East,82,1.0,1.0,78,0.00,,,0.00,Wunderground v.1.15,2013-03-17 21:40:00,
2013-03-17 17:45:00,47.1,40.6,30.08,ESE,116,0.0,1.0,78,0.00,,,0.00,Wunderground v.1.15,2013-03-17 21:45:00,
2013-03-17 17:50:00,47.1,40.6,30.08,West,270,0.0,2.0,78,0.00,,,0.00,Wunderground v.1.15,2013-03-17 21:50:00,
2013-03-17 17:55:00,47.0,40.5,30.08,NNW,331,1.0,2.0,78,0.00,,,0.00,Wunderground v.1.15,2013-03-17 21:55:00,
2013-03-17 18:00:00,46.9,40.4,30.08,ENE,65,0.0,0.0,78,0.00,,,0.00,Wunderground v.1.15,2013-03-17 22:00:00,
2013-03-17 18:05:00,46.8,40.3,30.09,NNW,332,0.0,0.0,78,0.00,,,0.00,Wunderground v.1.15,2013-03-17 22:05:00,
2013-03-17 18:15:00,46.7,40.2,30.09,SE,128,0.0,2.0,78,0.00,,,0.00,Wunderground v.1.15,2013-03-17 22:15:00,
2013-03-17 18:20:00,46.5,40.0,30.09,SE,128,0.0,0.0,78,0.00,,,0.00,Wunderground v.1.15,2013-03-17 22:20:00,
2013-03-17 18:25:00,46.3,39.8,30.09,West,277,1.0,1.0,78,0.00,,,0.00,Wunderground v.1.15,2013-03-17 22:25:00,
2013-03-17 18:35:00,46.0,39.9,30.10,SW,223,1.0,1.0,79,0.00,,,0.00,Wunderground v.1.15,2013-03-17 22:35:00,
2013-03-17 18:40:00,45.8,39.7,30.10,NW,321,1.0,1.0,79,0.00,,,0.00,Wunderground v.1.15,2013-03-17 22:40:00,
2013-03-17 18:45:00,45.7,39.6,30.11,North,355,0.0,1.0,79,0.00,,,0.00,Wunderground v.1.15,2013-03-17 22:45:00,
2013-03-17 18:55:00,45.4,39.6,30.11,WSW,256,1.0,1.0,80,0.00,,,0.00,Wunderground v.1.15,2013-03-17 22:55:00,
2013-03-17 19:00:00,45.4,39.6,30.11,East,87,1.0,1.0,80,0.00,,,0.00,Wunderground v.1.15,2013-03-17 23:00:00,
2013-03-17 19:05:00,45.2,39.4,30.11,North,355,1.0,1.0,80,0.00,,,0.00,Wunderground v.1.15,2013-03-17 23:05:00,
2013-03-17 19:15:00,45.0,39.2,30.12,NNE,15,0.0,1.0,80,0.00,,,0.00,Wunderground v.1.15,2013-03-17 23:15:00,
2013-03-17 19:20:00,44.9,39.4,30.12,SSW,208,0.0,0.0,81,0.00,,,0.00,Wunderground v.1.15,2013-03-17 23:20:00,
2013-03-17 19:25:00,44.8,39.3,30.12,WNW,298,0.0,0.0,81,0.00,,,0.00,Wunderground v.1.15,2013-03-17 23:25:00,
2013-03-17 19:30:00,44.7,39.2,30.12,NE,55,0.0,0.0,81,0.00,,,0.00,Wunderground v.1.15,2013-03-17 23:30:00,
2013-03-17 19:35:00,44.5,39.0,30.13,NW,314,0.0,0.0,81,0.00,,,0.00,Wunderground v.1.15,2013-03-17 23:35:00,
2013-03-17 19:40:00,44.3,39.2,30.13,NW,306,1.0,1.0,82,0.00,,,0.00,Wunderground v.1.15,2013-03-17 23:40:00,
2013-03-17 19:50:00,44.0,38.9,30.13,NNW,336,0.0,0.0,82,0.00,,,0.00,Wunderground v.1.15,2013-03-17 23:50:00,
2013-03-17 19:55:00,43.9,39.1,30.13,NNW,337,0.0,0.0,83,0.00,,,0.00,Wunderground v.1.15,2013-03-17 23:55:00,
2013-03-17 20:00:00,43.7,38.9,30.13,NW,306,0.0,0.0,83,0.00,,,0.00,Wunderground v.1.15,2013-03-18 00:00:00,
2013-03-17 20:05:00,43.6,38.8,30.13,ESE,111,0.0,0.0,83,0.00,,,0.00,Wunderground v.1.15,2013-03-18 00:05:00,
2013-03-17 20:15:00,43.4,38.6,30.13,ENE,63,0.0,0.0,83,0.00,,,0.00,Wunderground v.1.15,2013-03-18 00:15:00,
2013-03-17 20:25:00,43.2,38.7,30.14,NE,34,0.0,1.0,84,0.00,,,0.00,Wunderground v.1.15,2013-03-18 00:25:00,
2013-03-17 20:30:00,43.1,38.6,30.14,NE,34,0.0,1.0,84,0.00,,,0.00,Wunderground v.1.15,2013-03-18 00:30:00,
2013-03-17 20:35:00,43.1,38.6,30.14,NW,321,0.0,1.0,84,0.00,,,0.00,Wunderground v.1.15,2013-03-18 00:35:00,
2013-03-17 20:40:00,43.0,38.5,30.13,SSE,161,1.0,1.0,84,0.00,,,0.00,Wunderground v.1.15,2013-03-18 00:40:00,
2013-03-17 20:45:00,42.9,38.4,30.13,East,80,1.0,1.0,84,0.00,,,0.00,Wunderground v.1.15,2013-03-18 00:45:00,
2013-03-17 20:50:00,42.8,38.3,30.14,East,91,0.0,0.0,84,0.00,,,0.00,Wunderground v.1.15,2013-03-18 00:50:00,
2013-03-17 21:00:00,42.7,38.2,30.15,WSW,242,0.0,0.0,84,0.00,,,0.00,Wunderground v.1.15,2013-03-18 01:00:00,
2013-03-17 21:05:00,42.7,38.2,30.15,ESE,118,0.0,0.0,84,0.00,,,0.00,Wunderground v.1.15,2013-03-18 01:05:00,
2013-03-17 21:15:00,42.6,38.1,30.16,East,101,0.0,0.0,84,0.00,,,0.00,Wunderground v.1.15,2013-03-18 01:15:00,
2013-03-17 21:25:00,42.5,38.0,30.16,NNW,340,0.0,0.0,84,0.00,,,0.00,Wunderground v.1.15,2013-03-18 01:25:00,
2013-03-17 21:30:00,42.4,37.9,30.17,North,9,0.0,2.0,84,0.00,,,0.00,Wunderground v.1.15,2013-03-18 01:30:00,
2013-03-17 21:35:00,42.3,38.1,30.17,West,281,0.0,2.0,85,0.00,,,0.00,Wunderground v.1.15,2013-03-18 01:35:00,
2013-03-17 21:45:00,42.2,38.0,30.17,West,281,0.0,0.0,85,0.00,,,0.00,Wunderground v.1.15,2013-03-18 01:45:00,
2013-03-17 21:50:00,42.2,38.0,30.17,WNW,292,0.0,0.0,85,0.00,,,0.00,Wunderground v.1.15,2013-03-18 01:50:00,
2013-03-17 21:55:00,42.1,37.9,30.18,NNW,336,0.0,0.0,85,0.00,,,0.00,Wunderground v.1.15,2013-03-18 01:55:00,
2013-03-17 22:05:00,42.0,37.8,30.18,NW,323,0.0,4.0,85,0.00,,,0.00,Wunderground v.1.15,2013-03-18 02:05:00,
2013-03-17 22:15:00,41.9,37.7,30.19,NNW,342,0.0,1.0,85,0.00,,,0.00,Wunderground v.1.15,2013-03-18 02:15:00,
2013-03-17 22:20:00,41.8,37.6,30.19,NW,313,0.0,1.0,85,0.00,,,0.00,Wunderground v.1.15,2013-03-18 02:20:00,
2013-03-17 22:25:00,41.7,37.5,30.19,NNW,338,1.0,1.0,85,0.00,,,0.00,Wunderground v.1.15,2013-03-18 02:25:00,
2013-03-17 22:30:00,41.6,37.4,30.19,North,351,1.0,1.0,85,0.00,,,0.00,Wunderground v.1.15,2013-03-18 02:30:00,
2013-03-17 22:40:00,41.3,37.4,30.19,NE,55,0.0,0.0,86,0.00,,,0.00,Wunderground v.1.15,2013-03-18 02:40:00,
2013-03-17 22:45:00,41.3,37.4,30.19,NE,55,0.0,0.0,86,0.00,,,0.00,Wunderground v.1.15,2013-03-18 02:45:00,
2013-03-17 22:50:00,41.1,37.5,30.20,WNW,291,0.0,0.0,87,0.00,,,0.00,Wunderground v.1.15,2013-03-18 02:50:00,
2013-03-17 22:55:00,41.1,37.5,30.20,WNW,291,0.0,0.0,87,0.00,,,0.00,Wunderground v.1.15,2013-03-18 02:55:00,
2013-03-17 23:00:00,40.9,37.6,30.20,WNW,291,0.0,0.0,88,0.00,,,0.00,Wunderground v.1.15,2013-03-18 03:00:00,
2013-03-17 23:05:00,40.8,37.8,30.20,WNW,291,0.0,0.0,89,0.00,,,0.00,Wunderground v.1.15,2013-03-18 03:05:00,
2013-03-17 23:15:00,40.6,37.9,30.20,WNW,291,0.0,0.0,90,0.00,,,0.00,Wunderground v.1.15,2013-03-18 03:15:00,
2013-03-17 23:20:00,40.5,37.8,30.20,WNW,291,0.0,0.0,90,0.00,,,0.00,Wunderground v.1.15,2013-03-18 03:20:00,
2013-03-17 23:25:00,40.4,38.0,30.20,WNW,291,0.0,0.0,91,0.00,,,0.00,Wunderground v.1.15,2013-03-18 03:25:00,
2013-03-17 23:30:00,40.3,37.9,30.20,WNW,291,0.0,0.0,91,0.00,,,0.00,Wunderground v.1.15,2013-03-18 03:30:00,
2013-03-17 23:35:00,40.1,37.7,30.20,West,273,0.0,0.0,91,0.00,,,0.00,Wunderground v.1.15,2013-03-18 03:35:00,
2013-03-17 23:45:00,39.9,37.8,30.21,WNW,292,0.0,1.0,92,0.00,,,0.00,Wunderground v.1.15,2013-03-18 03:45:00,
2013-03-17 23:50:00,39.8,37.9,30.21,West,281,0.0,0.0,93,0.00,,,0.00,Wunderground v.1.15,2013-03-18 03:50:00,
2013-03-17 23:55:00,39.7,37.8,30.21,WNW,288,0.0,0.0,93,0.00,,,0.00,Wunderground v.1.15,2013-03-18 03:55:00,